• Em Portugal
  • Lista de países
  • Para 7 dias
  • Temperatura da água
  • Mapas de satélite
  • Mapa do tempo
  • Widgets de tempo
  • user-avatar
    Iniciar Sessão

    Previsão horária em Florianópolis

    Hoje, 23 Novembro, Quinta-feira

    Tempo Temperatura Precipitação Vento Pressão Humidade
    00:00 +16°C° 0 mm 3 m/s 762 mmHg 91%
    01:00 +16°C° 0 mm 3 m/s 762 mmHg 93%
    02:00 +15°C° 0 mm 2 m/s 762 mmHg 95%
    03:00 +16°C° 0 mm 2 m/s 761 mmHg 93%
    04:00 +15°C° 0 mm 1 m/s 761 mmHg 93%
    05:00 +15°C° 0 mm 1 m/s 761 mmHg 93%
    06:00 +15°C° 0 mm 1 m/s 762 mmHg 93%
    07:00 +19°C° 0 mm 1 m/s 762 mmHg 82%
    08:00 +21°C° 0 mm 1 m/s 762 mmHg 70%
    09:00 +24°C° 0 mm 1 m/s 762 mmHg 59%
    10:00 +24°C° 0 mm 2 m/s 762 mmHg 60%
    11:00 +24°C° 0 mm 3 m/s 762 mmHg 62%
    12:00 +25°C° 0 mm 4 m/s 761 mmHg 63%
    13:00 +26°C° 0 mm 4 m/s 761 mmHg 60%
    14:00 +27°C° 0 mm 5 m/s 760 mmHg 57%
    15:00 +28°C° 0 mm 5 m/s 760 mmHg 55%
    16:00 +27°C° 0 mm 5 m/s 760 mmHg 60%
    17:00 +26°C° 0 mm 5 m/s 760 mmHg 65%
    18:00 +25°C° 0 mm 5 m/s 760 mmHg 70%
    19:00 +22°C° 0 mm 5 m/s 760 mmHg 78%
    20:00 +20°C° 0 mm 5 m/s 760 mmHg 87%
    21:00 +17°C° 0 mm 5 m/s 761 mmHg 95%
    22:00 +17°C° 0 mm 5 m/s 761 mmHg 95%
    23:00 +17°C° 0 mm 5 m/s 761 mmHg 96%

    Amanhã, 24 Novembro, Sexta-feira

    Tempo Temperatura Precipitação Vento Pressão Humidade
    00:00 +17°C° 0 mm 5 m/s 761 mmHg 96%
    01:00 +18°C° 0 mm 4 m/s 761 mmHg 95%
    02:00 +18°C° 0 mm 4 m/s 761 mmHg 95%
    03:00 +18°C° 0 mm 4 m/s 761 mmHg 94%
    04:00 +18°C° 0 mm 4 m/s 761 mmHg 94%
    05:00 +18°C° 0 mm 4 m/s 761 mmHg 94%
    06:00 +18°C° 0 mm 4 m/s 761 mmHg 94%
    07:00 +21°C° 0 mm 4 m/s 762 mmHg 82%
    08:00 +25°C° 0 mm 4 m/s 762 mmHg 70%
    09:00 +28°C° 0 mm 4 m/s 762 mmHg 58%
    10:00 +32°C° 0 mm 4 m/s 762 mmHg 51%
    11:00 +34°C° 0 mm 5 m/s 761 mmHg 43%
    12:00 +36°C° 0 mm 5 m/s 761 mmHg 36%
    13:00 +36°C° 0 mm 5 m/s 760 mmHg 36%
    14:00 +36°C° 0 mm 5 m/s 760 mmHg 35%
    15:00 +36°C° 0 mm 5 m/s 759 mmHg 35%
    16:00 +34°C° 0 mm 5 m/s 759 mmHg 46%
    17:00 +32°C° 0 mm 4 m/s 759 mmHg 58%
    18:00 +29°C° 0 mm 4 m/s 759 mmHg 70%
    19:00 +26°C° 0 mm 4 m/s 760 mmHg 79%
    20:00 +24°C° 0 mm 3 m/s 761 mmHg 88%
    21:00 +21°C° 0 mm 3 m/s 761 mmHg 98%
    22:00 +21°C° 0 mm 2 m/s 762 mmHg 98%
    23:00 +21°C° 0 mm 2 m/s 762 mmHg 97%

    Depois de amanhã, 25 Novembro, Sábado

    Tempo Temperatura Precipitação Vento Pressão Humidade
    00:00 +22°C° 0 mm 1 m/s 763 mmHg 97%
    01:00 +22°C° 0 mm 1 m/s 763 mmHg 97%
    02:00 +21°C° 0 mm 1 m/s 762 mmHg 97%
    03:00 +21°C° 0 mm 1 m/s 762 mmHg 97%
    04:00 +21°C° 0 mm 1 m/s 762 mmHg 97%
    05:00 +21°C° 0 mm 1 m/s 762 mmHg 97%
    06:00 +21°C° 0 mm 1 m/s 762 mmHg 97%
    07:00 +23°C° 0 mm 1 m/s 763 mmHg 87%
    08:00 +25°C° 0 mm 1 m/s 763 mmHg 77%
    09:00 +28°C° 0 mm 1 m/s 764 mmHg 67%
    10:00 +29°C° 0 mm 2 m/s 763 mmHg 61%
    11:00 +30°C° 0 mm 3 m/s 763 mmHg 55%
    12:00 +33°C° 0 mm 3 m/s 763 mmHg 49%
    13:00 +32°C° 0 mm 4 m/s 762 mmHg 51%
    14:00 +32°C° 0 mm 4 m/s 762 mmHg 54%
    15:00 +32°C° 0 mm 4 m/s 761 mmHg 57%
    16:00 +29°C° 0 mm 3 m/s 761 mmHg 65%
    17:00 +27°C° 0 mm 3 m/s 761 mmHg 74%
    18:00 +25°C° 0 mm 3 m/s 761 mmHg 83%
    19:00 +24°C° 0,2 mm 2 m/s 761 mmHg 88%
    20:00 +23°C° 0,2 mm 2 m/s 761 mmHg 94%
    21:00 +22°C° 0,2 mm 1 m/s 762 mmHg 99%
    22:00 +22°C° 0,2 mm 1 m/s 762 mmHg 99%
    23:00 +22°C° 0,2 mm 1 m/s 761 mmHg 99%

    26 Novembro, Domingo

    Tempo Temperatura Precipitação Vento Pressão Humidade
    00:00 +22°C° 0,2 mm 1 m/s 761 mmHg 99%
    01:00 +22°C° 0,2 mm 1 m/s 761 mmHg 99%
    02:00 +22°C° 0,2 mm 1 m/s 760 mmHg 99%
    03:00 +22°C° 0,2 mm 1 m/s 760 mmHg 99%
    04:00 +22°C° 0,3 mm 1 m/s 759 mmHg 99%
    05:00 +22°C° 0,3 mm 1 m/s 759 mmHg 99%
    06:00 +22°C° 0,3 mm 1 m/s 759 mmHg 99%
    07:00 +23°C° 0,4 mm 1 m/s 759 mmHg 97%
    08:00 +24°C° 0,4 mm 1 m/s 759 mmHg 95%
    09:00 +25°C° 0,4 mm 2 m/s 759 mmHg 93%
    10:00 +25°C° 0,3 mm 2 m/s 759 mmHg 92%
    11:00 +25°C° 0,3 mm 2 m/s 758 mmHg 91%
    12:00 +26°C° 0,3 mm 2 m/s 758 mmHg 89%
    13:00 +26°C° 0,2 mm 2 m/s 757 mmHg 88%
    14:00 +27°C° 0,2 mm 2 m/s 756 mmHg 86%
    15:00 +27°C° 0,2 mm 2 m/s 756 mmHg 85%
    16:00 +27°C° 0,1 mm 2 m/s 756 mmHg 87%
    17:00 +27°C° 0,1 mm 2 m/s 756 mmHg 89%
    18:00 +26°C° 0,1 mm 1 m/s 756 mmHg 91%
    19:00 +25°C° 0 mm 1 m/s 756 mmHg 94%
    20:00 +25°C° 0 mm 1 m/s 756 mmHg 96%
    21:00 +24°C° 0 mm 1 m/s 757 mmHg 99%
    22:00 +24°C° 0 mm 1 m/s 757 mmHg 99%
    23:00 +23°C° 0 mm 1 m/s 756 mmHg 99%

    27 Novembro, Segunda-feira

    Tempo Temperatura Precipitação Vento Pressão Humidade
    00:00 +23°C° 0 mm 1 m/s 756 mmHg 99%
    01:00 +23°C° 0 mm 1 m/s 756 mmHg 99%
    02:00 +23°C° 0 mm 1 m/s 755 mmHg 99%
    03:00 +23°C° 0 mm 2 m/s 755 mmHg 99%
    04:00 +23°C° 0 mm 2 m/s 755 mmHg 99%
    05:00 +23°C° 0 mm 1 m/s 755 mmHg 98%
    06:00 +23°C° 0 mm 1 m/s 756 mmHg 98%
    07:00 +26°C° 0 mm 1 m/s 756 mmHg 86%
    08:00 +28°C° 0 mm 1 m/s 756 mmHg 74%
    09:00 +31°C° 0 mm 1 m/s 757 mmHg 62%
    10:00 +32°C° 0,2 mm 2 m/s 757 mmHg 63%
    11:00 +33°C° 0,2 mm 3 m/s 756 mmHg 64%
    12:00 +34°C° 0,2 mm 4 m/s 756 mmHg 65%
    13:00 +33°C° 0,4 mm 4 m/s 756 mmHg 69%
    14:00 +32°C° 0,4 mm 4 m/s 756 mmHg 73%
    15:00 +30°C° 0,4 mm 5 m/s 756 mmHg 77%
    16:00 +29°C° 0,1 mm 5 m/s 756 mmHg 80%
    17:00 +27°C° 0,1 mm 4 m/s 757 mmHg 84%
    18:00 +26°C° 0,1 mm 4 m/s 758 mmHg 88%
    19:00 +25°C° 0 mm 4 m/s 758 mmHg 90%
    20:00 +23°C° 0 mm 4 m/s 759 mmHg 93%
    21:00 +22°C° 0 mm 5 m/s 760 mmHg 96%
    22:00 +22°C° 0 mm 5 m/s 760 mmHg 95%
    23:00 +22°C° 0 mm 5 m/s 760 mmHg 93%

    28 Novembro, Terça-feira

    Tempo Temperatura Precipitação Vento Pressão Humidade
    00:00 +21°C° 0 mm 5 m/s 760 mmHg 92%
    01:00 +21°C° 0 mm 5 m/s 760 mmHg 94%
    02:00 +20°C° 0 mm 5 m/s 760 mmHg 95%
    03:00 +19°C° 0 mm 5 m/s 760 mmHg 96%
    04:00 +19°C° 0 mm 5 m/s 760 mmHg 94%
    05:00 +19°C° 0 mm 5 m/s 761 mmHg 92%
    06:00 +17°C° 0 mm 5 m/s 761 mmHg 91%
    07:00 +20°C° 0 mm 5 m/s 762 mmHg 81%
    08:00 +22°C° 0 mm 5 m/s 762 mmHg 71%
    09:00 +25°C° 0 mm 5 m/s 762 mmHg 61%
    10:00 +26°C° 0 mm 5 m/s 762 mmHg 58%
    11:00 +28°C° 0 mm 6 m/s 762 mmHg 56%
    12:00 +29°C° 0 mm 6 m/s 762 mmHg 53%
    13:00 +27°C° 0,1 mm 6 m/s 762 mmHg 61%
    14:00 +24°C° 0,1 mm 7 m/s 762 mmHg 70%
    15:00 +23°C° 0,1 mm 7 m/s 762 mmHg 78%
    16:00 +22°C° 0,1 mm 7 m/s 762 mmHg 80%
    17:00 +21°C° 0,1 mm 7 m/s 762 mmHg 82%
    18:00 +20°C° 0,1 mm 6 m/s 762 mmHg 84%
    19:00 +20°C° 0,1 mm 6 m/s 763 mmHg 87%
    20:00 +19°C° 0,1 mm 6 m/s 763 mmHg 91%
    21:00 +17°C° 0,1 mm 5 m/s 764 mmHg 94%
    22:00 +17°C° 0,1 mm 5 m/s 764 mmHg 95%
    23:00 +18°C° 0,1 mm 4 m/s 764 mmHg 95%
    Mostrar mais